Tracking 27420 objects as of 28-May-2023
HD Live streaming from Space Station
objects crossing your sky now

COSMOS 2251 DEB

Track COSMOS 2251 DEB now!
10-day predictions


NORAD ID: 33842
Int'l Code: 1993-036CK
Perigee: 733.9 km
Apogee: 802.5 km
Inclination: 74.0 °
Period: 100.1 minutes
Semi major axis: 7139 km
RCS: 0.0581 m2 (small)
Launch date: June 16, 1993
Source: Commonwealth of Independent States (former USSR) (CIS)
Launch site: PLESETSK MISSILE AND SPACE COMPLEX (PKMTR)

Note: This is SATELLITE DEBRIS
Your satellite tracking list
Your tracking list is empty




NASA's NSSDC Master Catalog

Two Line Element Set (TLE):
1 33842U 93036CK  23147.12984813  .00000794  00000-0  26093-3 0  9997
2 33842  74.0330 141.9656 0048066 119.2034 241.3941 14.39216632749433
Source of the keplerian elements: AFSPC